User: anonymous   Login
Location: Fort Wayne
(41.1310°N, 85.1290°W)
Time: 11:25:42
(UTC-04:00)
Language:

COSMOS 2428 - Orbit

View from above orbital plane
View from above orbital plane
View from above satellite
View from above satellite

Ground track
Ground track

The orbit data is extracted from the following two-line orbital elements,

1 31792U 07029A   14295.46330876  .00000362  00000-0  22147-3 0  1080
2 31792 070.9717 282.8787 0011597 288.5936 239.5524 14.12450641377286
Epoch (UTC): 22 October 2014 11:07:09
Eccentricity: 0.0011597
inclination: 70.9717°
perigee height: 842 km
apogee height: 859 km
right ascension of ascending node: 282.8787°
argument of perigee: 288.5936°
revolutions per day: 14.12450641
mean anomaly at epoch: 239.5524°
orbit number at epoch: 37728

The dashed part of the orbit path shows where the satellite is in the earth's shadow,  

DLR